Väder i Salinas

Ecuador flagga

Minas Gerais, Ecuador

Väderprognos, timme för timme.

Idag, 10 maj

TidVäderTempNederb.Vind
12:00Lätt molnighet26.6 °C0 mm1.6 m/s
13:00Delvis molnigt27.5 °C0 mm1.6 m/s
14:00Delvis molnigt28.1 °C0 mm1.4 m/s
15:00Delvis molnigt28.3 °C0 mm1.5 m/s
16:00Klart28.1 °C0 mm1.7 m/s
17:00Klart26.6 °C0 mm1.1 m/s
18:00Klart24.1 °C0 mm1.7 m/s
19:00Klart22.6 °C0 mm2.2 m/s
20:00Delvis molnigt22 °C0 mm1.5 m/s
21:00Klart21 °C0 mm2 m/s
22:00Klart20.2 °C0 mm1.9 m/s
23:00Klart19.6 °C0 mm1.7 m/s

Imorgon, 11 maj

TidVäderTempNederb.Vind
00:00Klart19.1 °C0 mm2.9 m/s
01:00Klart18.4 °C0 mm3 m/s
02:00Klart17.7 °C0 mm2.6 m/s
03:00Klart17.2 °C0 mm2.4 m/s
04:00Klart16.7 °C0 mm2.2 m/s
05:00Klart16.5 °C0 mm2 m/s
06:00Klart16.3 °C0 mm1.9 m/s
07:00Klart18 °C0 mm2.3 m/s
08:00Klart20 °C0 mm1.9 m/s
09:00Klart22.2 °C0 mm1.7 m/s
10:00Klart24.5 °C0 mm1.8 m/s
11:00Klart26.2 °C0 mm1.6 m/s
12:00Klart27.6 °C0 mm1.7 m/s
13:00Klart28.6 °C0 mm1.7 m/s
14:00Klart29.2 °C0 mm1.9 m/s
15:00Klart29.5 °C0 mm1.9 m/s
16:00Klart29.3 °C0 mm1.7 m/s
17:00Klart27.3 °C0 mm1.6 m/s
18:00Klart24.3 °C0 mm1.6 m/s
19:00Klart22.6 °C0 mm1.6 m/s
20:00Lätt molnighet22 °C0 mm3.1 m/s
21:00Klart21.8 °C0 mm3.2 m/s
22:00Klart20.7 °C0 mm2.8 m/s
23:00Klart19.9 °C0 mm2.5 m/s

Tisdag, 12 maj

TidVäderTempNederb.Vind
00:00Klart19.2 °C0 mm2.8 m/s
01:00Delvis molnigt18.5 °C0 mm2.8 m/s
02:00Lätt molnighet17.8 °C0 mm2.5 m/s
03:00Delvis molnigt17.7 °C0 mm1.9 m/s
04:00Delvis molnigt17.3 °C0 mm1.2 m/s
05:00Delvis molnigt16.9 °C0 mm1.2 m/s
06:00Delvis molnigt16.8 °C0 mm1.2 m/s
07:00Klart18.3 °C0 mm1.6 m/s
08:00Klart20.4 °C0 mm1.9 m/s
09:00Klart22.4 °C0 mm2.7 m/s
10:00Klart24.4 °C0 mm3 m/s
11:00Lätt molnighet26 °C0 mm3.3 m/s
12:00Klart27.3 °C0 mm3.6 m/s
13:00Klart28.3 °C0 mm4 m/s
14:00Klart28.8 °C0 mm4.2 m/s
15:00Klart28.9 °C0 mm4.3 m/s
16:00Klart28.6 °C0 mm4.5 m/s
17:00Klart27 °C0 mm3.9 m/s
18:00Lätt molnighet24.5 °C0 mm3.2 m/s
19:00Klart23.5 °C0 mm3.9 m/s
20:00Klart23 °C0 mm4.1 m/s
21:00Klart22 °C0 mm4.7 m/s
22:00Klart21.1 °C0 mm4.4 m/s
23:00Klart20.1 °C0 mm3.8 m/s

Onsdag, 13 maj

TidVäderTempNederb.Vind
00:00Klart19.4 °C0 mm3.2 m/s
01:00Lätt molnighet19.1 °C0 mm3.1 m/s
02:00Delvis molnigt19.4 °C0 mm2.9 m/s

Prognosdata från yr.no, levererat av Meteorologisk institutt och NRK.

Dela sidan